Weather History for Canton, GA

Change the Weather History Date:

Monday, December 24, 2012

  Actual Average (KGVL) Record (KGVL)
Temperature  
Mean Temperature 45 °F 42 °F  
Max Temperature 48 °F 50 °F 70 °F (1964)
Min Temperature 42 °F 34 °F 6 °F (1989)
Degree Days  
Heating Degree Days 20 23  
Month to date heating degree days 498  
Since 1 July heating degree days 1033  
Moisture  
Dew Point 39 °F    
Average Humidity 79    
Maximum Humidity 87    
Minimum Humidity 40    
Precipitation  
Precipitation 0.00 in 0.11 in 1.87 in (2002)
Month to date precipitation 3.83  
Year to date precipitation 53.31  
Sea Level Pressure  
Sea Level Pressure 29.93 in    
Wind  
Wind Speed 3 mph (East)    
Max Wind Speed 7 mph    
Max Gust Speed -    
Visibility 3 miles    
Events Fog , Rain    
T = Trace of Precipitation, MM = Missing Value Source: NWS Daily Summary

Daily Weather History Graph

Daily Weather History Graph

Search for Another Location

Airport:

Trip Planner

Search our weather history database for the weather conditions in past years. The results will help you decide how hot, cold, wet, or windy it might be!

Date:

Astronomy

Dec. 24, 2012 Rise Set
Actual Time 7:41 AM EST 5:33 PM EST
Civil Twilight 7:13 AM EST 6:01 PM EST
Nautical Twilight 6:42 AM EST 6:32 PM EST
Astronomical Twilight 6:11 AM EST 7:03 PM EST
Moon 2:57 PM EST (12/24) 4:22 AM EST (12/24)
Length of Visible Light 10h 47m
Length of Day
9h 52m
Waxing Gibbous, 88% of the Moon is Illuminated
Dec 24
Waxing Gibbous
Dec 28
Full
Jan 4
Last Quarter
Jan 11
New
Jan 18
First Quarter

Hourly Weather History & Observations

Time (EST) Temp. Windchill Dew Point Humidity Pressure Visibility Wind Dir Wind Speed Gust Speed Precip Events Conditions
12:15 AM 46.4 °F 45.2 °F 23.0 °F 40% 30.04 in 10.0 mi East 3.5 mph - N/A   Overcast
12:35 AM 46.4 °F - 24.8 °F 43% 30.04 in 10.0 mi Calm Calm - N/A Rain Rain
12:55 AM 46.4 °F 45.2 °F 26.6 °F 46% 30.03 in 10.0 mi ESE 3.5 mph - N/A   Overcast
1:15 AM 46.4 °F 45.2 °F 24.8 °F 43% 30.02 in 10.0 mi ESE 3.5 mph - N/A   Overcast
1:35 AM 46.4 °F 45.2 °F 26.6 °F 46% 30.01 in 10.0 mi East 3.5 mph - N/A   Overcast
1:55 AM 46.4 °F 45.2 °F 26.6 °F 46% 30.01 in 10.0 mi East 3.5 mph - N/A   Overcast
2:15 AM 46.4 °F - 26.6 °F 46% 30.00 in 10.0 mi Calm Calm - N/A   Overcast
2:35 AM 46.4 °F 45.2 °F 26.6 °F 46% 29.99 in 10.0 mi East 3.5 mph - N/A   Overcast
2:55 AM 46.4 °F - 26.6 °F 46% 30.00 in 10.0 mi Calm Calm - N/A   Overcast
3:15 AM 46.4 °F 44.3 °F 30.2 °F 53% 29.99 in 10.0 mi ENE 4.6 mph - N/A Rain Light Rain
3:35 AM 42.8 °F 41.1 °F 33.8 °F 70% 29.99 in 3.0 mi NNE 3.5 mph - N/A Rain Heavy Rain
3:55 AM 42.8 °F 40.1 °F 33.8 °F 70% 29.99 in 1.5 mi ENE 4.6 mph - N/A Rain Light Rain
4:15 AM 42.8 °F 41.1 °F 35.6 °F 76% 29.98 in 3.0 mi ENE 3.5 mph - N/A Rain Rain
4:55 AM 42.8 °F 39.3 °F 35.6 °F 76% 29.95 in 4.0 mi ENE 5.8 mph - N/A Rain Light Rain
5:15 AM 42.8 °F 41.1 °F 35.6 °F 76% 29.95 in 2.0 mi East 3.5 mph - N/A Rain Light Rain
5:35 AM 42.8 °F 40.1 °F 37.4 °F 81% 29.94 in 3.0 mi ESE 4.6 mph - N/A Rain Light Rain
5:55 AM 42.8 °F 39.3 °F 37.4 °F 81% 29.94 in 2.5 mi East 5.8 mph - N/A Rain Light Rain
6:15 AM 42.8 °F 41.1 °F 37.4 °F 81% 29.94 in 2.5 mi East 3.5 mph - N/A Rain Rain
6:35 AM 42.8 °F 40.1 °F 37.4 °F 81% 29.94 in 1.8 mi East 4.6 mph - N/A Rain Light Rain
6:55 AM 42.8 °F 41.1 °F 37.4 °F 81% 29.93 in 1.5 mi NE 3.5 mph - N/A Rain Light Rain
7:15 AM 42.8 °F - 37.4 °F 81% 29.94 in 0.8 mi Calm Calm - N/A   Unknown
7:35 AM 42.8 °F 39.3 °F 37.4 °F 81% 29.93 in 4.0 mi East 5.8 mph - N/A Rain Light Rain
7:55 AM 42.8 °F 41.1 °F 37.4 °F 81% 29.93 in 2.5 mi ENE 3.5 mph - N/A   Overcast
8:15 AM 42.8 °F 39.3 °F 37.4 °F 81% 29.93 in 2.0 mi ENE 5.8 mph - N/A Rain Light Rain
8:35 AM 42.8 °F 38.6 °F 37.4 °F 81% 29.92 in 0.5 mi ESE 6.9 mph - N/A Rain Heavy Rain
8:55 AM 42.8 °F 40.1 °F 37.4 °F 81% 29.93 in 2.5 mi ESE 4.6 mph - N/A Rain Light Rain
9:15 AM 42.8 °F 41.1 °F 37.4 °F 81% 29.92 in 0.5 mi East 3.5 mph - N/A Rain Light Rain
9:35 AM 42.8 °F 40.1 °F 39.2 °F 87% 29.92 in 1.8 mi East 4.6 mph - N/A   Overcast
9:55 AM 42.8 °F 41.1 °F 39.2 °F 87% 29.92 in 1.5 mi East 3.5 mph - N/A   Overcast
10:15 AM 42.8 °F 40.1 °F 39.2 °F 87% 29.92 in 1.2 mi East 4.6 mph - N/A Rain Rain
10:35 AM 42.8 °F 39.3 °F 39.2 °F 87% 29.92 in 1.0 mi East 5.8 mph - N/A Rain Rain
10:55 AM 44.6 °F 40.7 °F 39.2 °F 81% 29.92 in 1.0 mi East 6.9 mph - N/A Rain Rain
11:15 AM 44.6 °F 42.2 °F 41.0 °F 87% 29.92 in 2.0 mi East 4.6 mph - N/A   Overcast
11:35 AM 44.6 °F 42.2 °F 41.0 °F 87% 29.92 in 1.8 mi ENE 4.6 mph - N/A   Overcast
11:55 AM 44.6 °F 42.2 °F 41.0 °F 87% 29.91 in 2.5 mi ENE 4.6 mph - N/A   Overcast
12:15 PM 44.6 °F 43.1 °F 41.0 °F 87% 29.89 in 2.0 mi ENE 3.5 mph - N/A   Overcast
12:35 PM 44.6 °F 43.1 °F 41.0 °F 87% 29.90 in 4.0 mi ENE 3.5 mph - N/A   Overcast
12:55 PM 44.6 °F - 41.0 °F 87% 29.89 in 3.0 mi Calm Calm - N/A   Overcast
1:15 PM 44.6 °F 43.1 °F 41.0 °F 87% 29.89 in 3.0 mi East 3.5 mph - N/A   Overcast
1:35 PM 44.6 °F 43.1 °F 41.0 °F 87% 29.89 in 4.0 mi NE 3.5 mph - N/A   Light Drizzle
1:55 PM 46.4 °F 44.3 °F 42.8 °F 87% 29.87 in 3.0 mi ENE 4.6 mph - N/A Rain Rain
2:15 PM 46.4 °F - 42.8 °F 87% 29.87 in 3.0 mi Calm Calm - N/A   Overcast
2:35 PM 46.4 °F - 42.8 °F 87% 29.86 in 4.0 mi Calm Calm - N/A   Overcast
2:55 PM 46.4 °F - 42.8 °F 87% 29.87 in 4.0 mi Calm Calm - N/A   Overcast
3:15 PM 46.4 °F - 42.8 °F 87% 29.87 in 2.5 mi Calm Calm - N/A   Overcast
3:35 PM 46.4 °F - 42.8 °F 87% 29.88 in 2.5 mi Calm Calm - N/A   Overcast
3:55 PM 46.4 °F 42.9 °F 42.8 °F 87% 29.87 in 1.0 mi ESE 6.9 mph - N/A   Overcast
4:15 PM 46.4 °F - 42.8 °F 87% 29.89 in 0.5 mi Calm Calm - N/A Fog Fog
4:35 PM 48.2 °F - 42.8 °F 82% 29.90 in 0.5 mi Calm Calm - N/A   Haze
4:55 PM 48.2 °F - 44.6 °F 87% 29.89 in 0.5 mi Calm Calm - N/A Fog Fog
5:15 PM 48.2 °F - 44.6 °F 87% 29.89 in 0.2 mi Calm Calm - N/A Fog Fog
5:35 PM 46.4 °F - 42.8 °F 87% 29.89 in 0.2 mi Calm Calm - N/A Fog Fog
5:55 PM 46.4 °F 45.2 °F 42.8 °F 87% 29.89 in 0.2 mi ENE 3.5 mph - N/A Fog Fog
6:15 PM 46.4 °F - 42.8 °F 87% 29.90 in 0.2 mi Calm Calm - N/A Fog Fog
6:35 PM 46.4 °F - 42.8 °F 87% 29.91 in 0.2 mi Calm Calm - N/A Fog Fog
6:55 PM 46.4 °F - 42.8 °F 87% 29.92 in 0.2 mi Calm Calm - N/A Fog Fog
7:15 PM 46.4 °F - 42.8 °F 87% 29.93 in 0.2 mi Calm Calm - N/A Fog Fog
7:35 PM 46.4 °F - 42.8 °F 87% 29.92 in 0.5 mi Calm Calm - N/A Fog Fog
7:55 PM 46.4 °F - 42.8 °F 87% 29.93 in 0.2 mi Calm Calm - N/A Fog Fog
8:15 PM 46.4 °F - 42.8 °F 87% 29.93 in 0.2 mi Calm Calm - N/A Fog Fog
8:35 PM 46.4 °F - 42.8 °F 87% 29.92 in 0.2 mi Calm Calm - N/A Fog Fog
8:55 PM 46.4 °F - 42.8 °F 87% 29.93 in 0.5 mi Calm Calm - N/A Fog Fog
9:15 PM 46.4 °F - 42.8 °F 87% 29.94 in 0.5 mi Calm Calm - N/A Fog Fog
9:35 PM 46.4 °F - 42.8 °F 87% 29.95 in 0.2 mi Calm Calm - N/A Fog Fog
9:55 PM 48.2 °F - 44.6 °F 87% 29.95 in 0.2 mi Calm Calm - N/A Fog Fog
10:15 PM 48.2 °F - 44.6 °F 87% 29.95 in 0.2 mi Calm Calm - N/A Fog Fog
10:35 PM 48.2 °F - 44.6 °F 87% 29.96 in 0.2 mi Calm Calm - N/A Fog Fog
10:55 PM 48.2 °F - 44.6 °F 87% 29.96 in 0.2 mi Calm Calm - N/A Fog Fog
11:15 PM 48.2 °F - 44.6 °F 87% 29.96 in 0.2 mi Calm Calm - N/A Fog Fog
11:35 PM 48.2 °F - 44.6 °F 87% 29.96 in 0.2 mi Calm Calm - N/A Fog Fog
11:55 PM 48.2 °F - 44.6 °F 87% 29.97 in 0.2 mi Calm Calm - N/A Fog Fog